www.pogodaiklimat.ru

Погода и климат >> Архив погоды >> Чехия >> Кресин-Крамолин


ПОГОДА в Кресин-Крамолине

  • Прогноз погоды в Кресин-Крамолине
  • Монитор погоды в Кресин-Крамолине

АРХИВ ПОГОДЫ в Кресин-Крамолине

Время (UTC), дата Ветер
(напр.,м/с)
 
Видим.   Явления Облачность Т
(С)
Тd
(С)
f
(%)
Тe
(С)
Тes
(С)
Комфортность P
(гПа)
Po
(гПа)
Тmin
(С)
Tmax
(С)
R
(мм)
R24
(мм)
S
(см)
04 12.06 ЮВ 3 25 км н/о +18.5 +15.5 83 +19 +19 1009.3 949.0
05 12.06 ЮВ 3 23 км ясно +20.2 +16.2 78 +23 +25 комфорт 1008.5 948.6
06 12.06 ЮВ 4 23 км 1/0
[Ci fib]
+21.7 +15.8 69 +25 +28 комфорт 1008.0 948.4 +18.1
07 12.06 ЮВ 5 30 км 3/0
[Ci fib]
+23.4 +14.4 57 +27 +31 душно 1007.9 948.6
08 12.06 ЮВ 5 30 км 1/0
[Ci fib]
+25.4 +14.3 50 +28 +34 жарко 1007.4 948.5
09 12.06 ЮВ 6-12
{11}
14 км 1/0
[Ci fib]
+26.1 +13.0 44 +28 +34 жарко 1007.2 948.4
10 12.06 ЮВ 6
{13}
25 км 1/0
[Ci fib]
+27.5 +14.1 44 +30 +36 жарко 1006.7 948.2
11 12.06 ЮВ 6-11
{13}
35 км ясно +28.2 +13.4 40 +30 +37 жарко 1006.3 948.0
12 12.06 ЮВ 8-14
{13}
35 км 1/0
[Ci fib]
+29.2 +12.7 36 +30 +33 жарко 1005.8 947.7
13 12.06 ЮВ 8-15
{15}
30 км 1/1 1500 м
[Cu hum Ac trans]
+28.9 +14.1 40 +31 +33 жарко 1005.8 947.6
14 12.06 ЮВ 8-15
{15}
35 км 1/0
[Ac trans]
+28.9 +14.2 41 +31 +33 жарко 1005.5 947.4
15 12.06 ЮВ 9-14
{16}
35 км 3/0
[Ci fib]
+28.6 +14.2 41 +31 +31 жарко 1005.2 947.0
16 12.06 ЮВ 7-13
{15}
30 км н/о +28.3 +14.4 43 +31 +31 душно 1005.4 947.2
17 12.06 ЮВ 5
{13}
30 км н/о +27.1 +15.7 50 +30 +30 душно 1005.6 947.2
18 12.06 ЮВ 5
{16}
35 км 4/1 930 м
[Cb cap Ci sp]
+26.4 +15.3 50 +29 +29 жарко 1006.1 947.5 +29.7
19 12.06 Ю 5 35 км 9/8 1350 м
[Cu med, cong Ci fib]
+23.4 +16.0 63 +28 +28 душно 1008.4 949.1
20 12.06 СЗ 6
{11}
29 км зарница 9/9 840 м
[Cb cap]
+19.6 +15.7 78 +21 +21 комфорт 1011.0 950.8
21 12.06 СЗ 3
{11}
30 км н/о +18.0 +14.8 82 +18 +18 1011.7 951.1
22 12.06 СЗ 4 30 км н/о +17.2 +14.1 82 +17 +17 1011.9 951.1
23 12.06 СЗ 3 35 км н/о +16.3 +12.9 80 +16 +16 1011.9 950.9
00 13.06 З 3
{11}
35 км {дымка} н/о +15.9 +12.4 80 +15 +15 1012.2 951.1
01 13.06 СЗ 5 35 км н/о +16.4 +11.7 74 +15 +15 1012.3 951.3
02 13.06 СЗ 3 35 км н/о +15.1 +12.5 84 +14 +14 1012.8 951.5
03 13.06 СЗ 3 17 км н/о +15.1 +13.4 90 +14 +14 1012.9 951.6
04 13.06 СЗ 3 12 км н/о +14.8 +13.4 91 +14 +14 1013.7 952.3
05 13.06 СЗ 4 19 км н/о +15.3 +13.2 87 +14 +14 1014.3 953.0
06 13.06 С 4 35 км 9/9 930 м
[Sc]
+15.9 +11.6 76 +15 +15 1014.7 953.4 +14.7
07 13.06 СЗ 5 35 км 3/0
[Ci fib]
+17.3 +11.2 67 +17 +21 1014.6 953.6
08 13.06 СЗ 5 35 км 1/1 930 м
[Cu hum]
+19.0 +12.0 64 +20 +25 1014.3 953.7
09 13.06 СЗ 5 35 км 1/1 1200 м
[Cu hum]
+19.3 +11.4 60 +20 +27 1014.3 953.7
10 13.06 С 4 35 км 1/1 1200 м
[Cu hum Ac trans]
+20.5 +11.8 57 +23 +33 комфорт 1014.0 953.7
11 13.06 35 км 1/1 1230 м
[Cu hum]
+21.3 +12.9 59 1013.4 953.3
12 13.06 нст 2 35 км 5/5 1080 м
[Cu hum]
+21.9 +13.8 60 +25 +33 комфорт 1013.1 953.2
13 13.06 С 3 35 км 4/4 1140 м
[Cu hum]
+23.2 +14.2 57 +27 +34 душно 1012.6 953.0
14 13.06 35 км 3/3 1260 м
[Cu hum]
+23.2 +13.3 54 1012.3 952.7
15 13.06 С 3 35 км 3/3 1350 м
[Cu hum]
+24.8 +15.5 56 +28 +32 жарко 1011.6 952.4
16 13.06 С 4 35 км н/о +24.6 +15.2 56 +28 +28 душно 1011.5 952.2
17 13.06 С 4 29 км н/о +23.5 +15.1 59 +26 +26 жарко 1011.8 952.3
18 13.06 С 5 35 км ясно +22.0 +15.5 67 +26 +26 душно 1012.1 952.3 +25.0
19 13.06 СВ 5 29 км 1/1 930 м
[Cb calv Ci fib]
+20.1 +15.3 74 +22 +22 комфорт 1013.5 953.2
20 13.06 С 4 24 км 1/1 1050 м
[Cu hum]
+18.8 +15.5 81 +20 +20 1014.5 953.9
21 13.06 С 3 17 км н/о +17.6 +15.2 86 +18 +18 1015.3 954.4
22 13.06 З 2 14 км слаб. ливневой дождь н/о +18.1 +16.0 88 +19 +19 1015.7 954.9
23 13.06 17 км в посл. час дождь {ливн. осадки} н/о +18.5 +15.9 85 1016.8 956.0
00 14.06 С 2 7000 м в посл. час дождь {ливн. осадки} н/о +16.8 +15.8 94 +17 +17 1016.6 955.5 0.4
01 14.06 СЗ 2 10 км н/о +16.8 +15.4 91 +17 +17 1016.9 955.8
02 14.06 З 4 5000 м дымка н/о +15.0 +14.5 97 +14 +14 1017.5 955.9
03 14.06 З 3 2700 м дымка н/о +14.3 +13.8 97 +13 +13 1018.2 956.4
04 14.06 СЗ 3 8000 м дымка н/о +16.4 +15.4 94 +16 +16 1018.6 957.3
05 14.06 З 2 12 км н/о +17.5 +15.6 89 +18 +18 1018.9 957.8
06 14.06 нст 2 15 км ясно +19.6 +16.5 82 +22 +27 комфорт 1018.7 958.1 +14.3 0.4
07 14.06 29 км ясно +21.6 +14.8 65 1018.6 958.3
08 14.06 СВ 3 35 км ясно +23.0 +14.6 59 +27 +36 душно 1018.5 958.5
09 14.06 СВ 5 35 км 1/0
[Ci fib]
+23.6 +13.2 52 +26 +33 жарко 1018.3 958.4
10 14.06 В 4 35 км 1/0
[Ci fib]
+25.6 +11.7 42 +27 +38 жарко 1017.7 958.2
11 14.06 В 3 30 км 1/0
[Ci fib]
+26.3 +13.0 44 +28 +43 жарко 1017.3 958.0
12 14.06 В 3 30 км 1/0
[Ci fib]
+27.1 +15.1 48 +30 +44 душно 1016.4 957.3
13 14.06 ЮВ 4 30 км 1/1 1230 м
[Cu hum]
+27.7 +16.4 50 +31 +40 душно 1015.9 957.0
14 14.06 ЮВ 4 35 км 1/1 1140 м
[Cu hum]
+28.1 +16.0 48 +31 +38 душно 1015.1 956.3
15 14.06 ЮВ 5 35 км 1/1 1080 м
[Cu hum]
+28.3 +15.0 44 +31 +35 душно 1014.6 955.8
16 14.06 ЮВ 4 35 км н/о +28.2 +13.8 41 +30 +30 жарко 1014.3 955.5
17 14.06 ЮВ 5 35 км н/о +27.5 +15.3 47 +30 +30 жарко 1014.2 955.3
18 14.06 ЮВ 3 35 км 4/0
[Ci fib]
+26.2 +15.3 51 +29 +29 жарко 1014.4 955.3 +28.9
19 14.06 В 3 35 км 3/0
[Ci fib]
+24.2 +15.8 59 +27 +27 жарко 1014.3 954.8
20 14.06 В 3 30 км 1/0
[Ci fib]
+23.2 +15.9 64 +28 +28 душно 1014.2 954.5
21 14.06 ЮВ 4 26 км н/о +22.9 +17.4 71 +28 +28 душно 1014.2 954.5
22 14.06 ЮВ 4 25 км н/о +22.5 +17.6 74 +28 +28 душно 1013.6 953.9
23 14.06 ЮВ 4 24 км н/о +22.2 +17.3 74 +27 +27 душно 1013.0 953.2
00 15.06 ЮВ 4 25 км н/о +22.0 +16.4 71 +26 +26 душно 1012.5 952.7
01 15.06 ЮВ 4 25 км н/о +22.1 +15.7 67 +26 +26 душно 1011.9 952.1
02 15.06 ЮВ 6 28 км н/о +22.6 +15.1 63 +26 +26 жарко 1011.1 951.5
03 15.06 ЮВ 4
{12}
28 км н/о +22.5 +14.1 59 +26 +26 жарко 1011.1 951.4
04 15.06 ЮВ 3 27 км н/о +21.5 +14.5 64 +24 +24 комфорт 1011.1 951.2
05 15.06 ЮВ 4 35 км н/о +22.2 +15.5 66 +26 +26 душно 1010.9 951.2
06 15.06 ЮВ 4
{12}
30 км 9/0
[Ac trans]
+22.4 +16.2 68 +27 +28 душно 1010.7 951.1 +21.0
07 15.06 ЮВ 4 30 км 9/0
[Ac trans]
+24.2 +15.9 60 +27 +30 жарко 1010.5 951.2
08 15.06 ЮВ 4 35 км 9/0
[Ac trans]
+25.4 +16.2 57 +29 +32 душно 1010.2 951.2
09 15.06 ЮВ 3 16 км 9/0
[Ac trans]
+26.8 +15.4 50 +30 +35 душно 1010.3 951.5
10 15.06 ЮВ 2 35 км 9/0
[Ac trans]
+27.5 +15.6 48 +30 +38 жарко 1010.2 951.6
11 15.06 Ю 4 30 км 9/0
[Ac trans]
+27.6 +15.1 46 +30 +36 жарко 1010.2 951.6
12 15.06 нст 2 30 км 9/0
[Ac trans]
+29.7 +14.2 39 +32 +40 душно 1009.9 951.7
13 15.06 30 км 8/1 1380 м
[Cu hum Cc]
+29.8 +11.4 32 1009.8 951.5
14 15.06 30 км 6/1 1500 м
[Cu med, cong Ac trans Ci fib]
+30.7 +12.3 32 1009.3 951.2
15 15.06 З 4 29 км 8/8 1500 м
[Cb calv Ac cuf]
+27.6 +13.2 41 +29 +30 жарко 1009.0 950.4
16 15.06 Ю 9-14
{12}
12 км ливневой дождь н/о +21.1 +15.4 70 +24 +24 комфорт 1011.9 951.9
17 15.06 С 4
{16}
16 км в посл. час дождь {ливн. осадки} н/о +21.8 +17.8 78 +26 +26 душно 1011.3 951.6
18 15.06 Ю 2
{16}
29 км 10/0
[Ac trans]
+20.4 +17.6 84 +24 +25 комфорт 1011.7 951.7 +31.4 2
19 15.06 30 км 9/0
[Ac trans Cs]
+20.2 +16.3 78 1012.1 952.0
20 15.06 ЮЗ 8
{14}
13 км гроза, ливневой дождь 9/9 1500 м
[Cb calv]
+18.6 +16.7 89 +19 +19 1014.1 953.5
21 15.06 З 6
{14}
14 км слаб. ливневой дождь {гроза} н/о +17.9 +15.5 86 +17 +17 1014.2 953.5
22 15.06 З 5 35 км в посл. час дождь {ливн. осадки} н/о +17.5 +15.8 90 +17 +17 1014.1 953.3
23 15.06 СЗ 3 18 км слаб. ливневой дождь н/о +17.0 +16.4 96 +17 +17 1015.6 954.6
00 16.06 С 2
{14}
30 км слаб. ливневой дождь {гроза} н/о +17.3 +15.6 90 +18 +18 1014.9 954.0 12
01 16.06 С 2 30 км {ливн. осадки} н/о +16.4 +15.2 93 +16 +16 1014.8 953.7
02 16.06 СЗ 3 10 км н/о +15.2 +14.8 97 +14 +14 1014.8 953.5
03 16.06 СЗ 3 29 км {ливн. осадки, дымка} н/о +15.6 +14.6 94 +15 +15 1015.3 954.0
04 16.06 З 3 26 км н/о +16.0 +14.9 93 +15 +15 1015.9 954.7
05 16.06 З 4 14 км слаб. ливневой дождь н/о +15.9 +15.0 94 +15 +15 1016.8 955.5
06 16.06 СЗ 5 18 км в посл. час дождь 9/6 210 м
[St Ac trans]
+16.8 +15.7 93 +16 +16 1016.8 955.7 +15.2 12
07 16.06 С 4 20 км 10/10 210 м
[St]
+17.0 +15.4 90 +17 +17 1017.5 956.4
08 16.06 СЗ 6 25 км слаб. дождь 10/10 300 м
[Frnb]
+15.2 +13.7 91 +14 +14 1018.8 957.2
09 16.06 СЗ 6 35 км в посл. час дождь 10/10 450 м
[Sc]
+15.0 +12.5 85 +13 +13 1019.6 957.9
10 16.06 СЗ 5 35 км 10/10 700 м
[Sc]
+15.2 +12.3 83 +14 +14 1020.0 958.3
11 16.06 СЗ 5 35 км 10/10 800 м
[Sc]
+16.4 +12.4 77 +15 +15 1020.0 958.5
12 16.06 СЗ 5 35 км {дождь} 9/9 600 м
[Cu Sc]
+18.5 +13.4 72 +19 +20 1019.4 958.4 0.1
13 16.06 СЗ 5 35 км 9/9 960 м
[Sc]
+17.9 +12.1 69 +18 +18 1019.9 958.7
14 16.06 С 4 14 км 8/6 960 м
[Cu Sc Ac trans]
+19.1 +12.1 64 +20 +22 1019.5 958.6
15 16.06 СЗ 5 35 км 4/3 960 м
[Cu hum Ac trans]
+19.8 +11.9 60 +21 +24 комфорт 1019.1 958.4
16 16.06 СЗ 5 35 км н/о +20.2 +11.7 58 +22 +22 комфорт 1018.5 957.9
17 16.06 СЗ 5 35 км н/о +19.8 +10.1 54 +21 +21 комфорт 1019.3 958.5
18 16.06 С 4 35 км 1/1 1230 м
[Cu hum Ci sp]
+18.2 +10.0 59 +18 +19 1020.4 959.2 +21.0 0.1
19 16.06 С 3 35 км 3/1 1500 м
[Cu hum Ac trans Ci sp]
+16.6 +11.1 70 +16 +16 1020.5 959.0
20 16.06 СЗ 3 35 км 3/0
[Ac As Ci fib]
+15.5 +10.6 73 +15 +15 1020.8 959.1
21 16.06 СЗ 2 35 км н/о +15.6 +10.3 71 +16 +16 1021.6 959.8
22 16.06 СЗ 2 35 км н/о +15.1 +10.6 74 +15 +15 1022.0 960.1
23 16.06 З 3 35 км н/о +12.2 +10.3 88 +11 +11 1022.4 959.9
00 17.06 З 3 27 км н/о +11.4 +10.0 91 +10 +10 1022.4 959.7
01 17.06 З 3 35 км н/о +12.8 +10.1 84 +11 +11 1022.1 959.7
02 17.06 З 3 29 км н/о +11.4 +9.8 90 +10 +10 1022.8 960.1
03 17.06 З 3 35 км н/о +12.3 +10.4 88 +11 +11 1022.5 960.0
04 17.06 З 2 35 км н/о +13.8 +11.0 83 +13 +13 1022.5 960.3
05 17.06 30 км н/о +15.7 +11.7 77 1022.2 960.4
06 17.06 С 2 35 км 9/0 2000 м
[Ac As]
+16.2 +12.5 79 +16 +18 1022.1 960.5 +11.0
07 17.06 С 2 35 км 8/0
[Ac trans]
+17.1 +12.3 73 +17 +22 1021.8 960.4
08 17.06 СВ 4 35 км 8/1 1500 м
[Cu hum Ac trans Ci fib]
+18.5 +11.5 64 +19 +23 1021.4 960.3
09 17.06 СВ 5 35 км 6/5 1080 м
[Cu hum Ci fib]
+19.9 +11.9 60 +21 +25 комфорт 1020.9 960.1
10 17.06 СВ 4 35 км 6/5 1140 м
[Cu hum Ci fib]
+20.3 +10.8 54 +22 +28 комфорт 1020.9 960.1
11 17.06 СВ 5 35 км 6/6 1200 м
[Cu med, cong]
+20.9 +12.2 57 +23 +27 комфорт 1020.5 959.9
12 17.06 СВ 4 35 км 8/6 1300 м
[Cu med, cong Ci fib]
+21.6 +12.6 57 +24 +28 комфорт 1020.2 959.8
13 17.06 СВ 5 35 км 6/4 1380 м
[Cu med, cong Ac trans Ci fib]
+21.7 +11.8 53 +24 +28 комфорт 1019.9 959.5
14 17.06 СВ 3 35 км 6/3 1380 м
[Cu med, cong Ci fib]
+22.3 +10.7 48 +24 +30 комфорт 1019.3 959.0
15 17.06 СВ 3 35 км 8/3 1410 м
[Cu hum Ci fib]
+22.6 +10.8 47 +25 +29 комфорт 1018.6 958.4
16 17.06 С 5 35 км н/о +21.9 +11.1 50 +24 +24 комфорт 1018.3 958.0
17 17.06 СВ 4 35 км н/о +21.5 +11.4 53 +24 +24 комфорт 1018.2 957.8
18 17.06 СВ 4 35 км 8/0
[Ci sp]
+20.0 +12.2 61 +22 +22 комфорт 1018.3 957.7 +23.1
19 17.06 СВ 2 35 км 8/1 1500 м
[Cu hum Ci sp]
+19.2 +11.8 62 +21 +21 комфорт 1018.7 957.9
20 17.06 В 2 35 км 9/1 1380 м
[Cu hum Cs]
+18.8 +11.0 60 +20 +20 1019.1 958.1
21 17.06 нст 1 35 км н/о +18.0 +10.9 63 +19 +19 1019.4 958.3
22 17.06 В 1 35 км н/о +17.0 +11.6 70 +18 +18 1019.9 958.5
23 17.06 штиль 0 35 км н/о +16.2 +11.7 75 +16 +16 1019.9 958.4
00 18.06 нст 1 35 км н/о +15.2 +11.8 80 +16 +16 1019.7 958.0
01 18.06 штиль 0 17 км н/о +15.0 +11.8 81 +15 +15 1019.4 957.7
02 18.06 30 км н/о +13.8 +11.6 87 1019.4 957.4
03 18.06 СЗ 2 35 км н/о +13.6 +11.1 85 +13 +13 1019.3 957.3
04 18.06 30 км н/о +13.6 +11.6 88 1019.2 957.2
05 18.06 35 км н/о +15.3 +13.2 87 1019.0 957.4
06 18.06 нст 1 35 км 9/0
[Cs]
+16.9 +11.8 72 +18 +22 1018.6 957.3 +12.6
07 18.06 35 км 8/0
[Ci sp]
+19.3 +13.0 67 1018.1 957.3
08 18.06 В 4 35 км 6/0
[Ci sp]
+20.7 +11.1 54 +23 +30 комфорт 1017.8 957.3
09 18.06 В 4 35 км 6/1 1500 м
[Cu hum Ci sp]
+21.6 +11.1 51 +23 +31 комфорт 1017.4 957.1
10 18.06 В 3 35 км 4/1 1500 м
[Cu hum Ci sp]
+21.7 +10.4 49 +23 +35 комфорт 1016.9 956.6
11 18.06 В 3 35 км 3/1 1500 м
[Cu hum Ci sp]
+23.1 +11.1 47 +25 +38 комфорт 1016.2 956.3
12 18.06 нст 2 35 км 1/1 1500 м
[Cu hum Ci sp]
+24.0 +13.8 53 +26 +42 жарко 1015.5 955.8
13 18.06 В 3 35 км 3/1 1440 м
[Cu hum Ci sp]
+24.7 +12.1 45 +26 +37 жарко 1014.9 955.4
14 18.06 35 км 1/1 1500 м
[Cu hum]
+24.7 +10.6 41 1014.3 954.8
15 18.06 СВ 3 35 км 1/1 1500 м
[Cu hum]
+24.8 +11.1 42 +26 +32 жарко 1013.8 954.3
16 18.06 В 3 35 км н/о +25.2 +12.2 44 +27 +27 жарко 1013.0 953.7
17 18.06 35 км н/о +24.8 +12.4 46 1013.0 953.6
18 18.06 нст 2 35 км 3/0
[Ac trans Ci fib]
+23.7 +11.7 47 +25 +26 комфорт 1013.1 953.5 +26.0
19 18.06 ЮВ 2 35 км 4/0
[Ac trans]
+22.3 +12.0 52 +25 +25 комфорт 1013.6 953.7
20 18.06 ЮВ 3 35 км 1/0
[Ac trans]
+21.0 +12.7 59 +24 +24 комфорт 1014.3 954.1
21 18.06 Ю 3 35 км н/о +19.5 +12.7 65 +21 +21 комфорт 1014.4 953.9
22 18.06 ЮВ 3 35 км н/о +18.7 +12.8 69 +20 +20 1014.3 953.6
23 18.06 ЮВ 3 35 км н/о +17.9 +12.7 72 +18 +18 1014.2 953.4
00 19.06 ЮВ 2 35 км н/о +17.1 +12.8 76 +17 +17 1014.3 953.3
01 19.06 ЮВ 2 35 км н/о +17.2 +12.9 76 +18 +18 1014.0 953.1
02 19.06 ЮВ 2 30 км н/о +16.5 +13.3 81 +17 +17 1013.8 952.7
03 19.06 нст 2 30 км {дымка} н/о +15.0 +13.0 88 +15 +15 1013.7 952.3

 

Местоположение метеостанции Кресин-Крамолин (Чехия): широта 49.58 долгота 15.08 высота над уровнем моря 533 м.

В архиве по умолчанию представлена погода в Кресин-Крамолине за последнюю неделю. Архивные данные за месяц целиком и за предыдущие месяцы, начиная с января 2011 года, Вы можете получить, выбрав интересующий диапазон дат из раскрывающегося списка и нажав кнопку "Ввод!".


*Определитесь, кто Вы:
робот инопланетянин человек

Внимание! Время в таблицах - всемирное. Для получения местного времени необходимо прибавить поправку, которая равна 1 ч.

Смотрите также архив погоды в соседних городах и на ближайших метеорологических станциях:

Погода в Чаславе (Чехия) (44 км)
Погода в Пршибиславе (Чехия) (50 км)
Погода в Церкви Мыслова (Чехия) (53 км)
Погода в Праге-Либус (Чехия) (67 км)
Погода в Пардубице (Чехия) (68 км)
Погода в Темелине (Чехия) (69 км)
Погода в Личау (Австрия) (70 км)
Погода в Свраточе (Чехия) (70 км)
Погода в Прага аэропорту (Чехия) (72 км)
Погода в Ческе-Будеёвице (Чехия) (83 км)

Пояснения к столбцам:

Ветер - указаны скорость ветра в м/с - средняя за 10 мин, порывы в срок и между сроками (в фигурных скобках) и направление, откуда дует ветер: С - северный, СВ - северо-восточный, В - восточный, ЮВ - юго-восточный, Ю - южный, ЮЗ - юго-западный, З - западный, СЗ - северо-западный.
Видимость - горизонтальная дальность видимости в метрах или километрах. При видимости от 1 до 10 км при отсутствии осадков обычно наблюдается дымка, при ухудшении видимости до 1 км и менее - туман. В сухую погоду видимость может ухудшаться дымом, пылью или мглою.
Явления - указаны атмосферные явления, наблюдавшиеся в срок или в последний час перед сроком; фигурными скобками обозначены явления, наблюдавшиеся между сроками (за 1-3 часа до срока); квадратными скобками обозначены град или гололедные отложения с указанием их диаметра в мм.
Облачность - указаны через наклонную черту общая и нижняя облачность в баллах и высота нижней границы облаков в метрах; квадратными скобками обозначены формы облаков: Ci - перистые, Cs - перисто-слоистые, Cc - перисто-кучевые, Ac - высококучевые, As - высокослоистые, Sc - слоисто-кучевые, Ns - слоисто-дождевые, Cu - кучевые, Cb - кучево-дождевые. Подробнее классификацию облаков см. в Атласе облаков (PDF).
T - Температура воздуха - температура, измеренная на высоте 2 м над землей.
Td - Температура точки росы - температура, при понижении до которой содержащийся в воздухе водяной пар достигнет насыщения.
f - Относительная влажность воздуха - влажноcть воздуха, измеренная на высоте 2 м над землей.
Te - Эффективная температура - температура, которую ощущает одетый по сезону человек в тени. Характеристика душности погоды. При расчете учитывается влияние влажности воздуха и скорости ветра на теплоощущения человека.
Tes - Эффективная температура на солнце - температура, которую ощущает человек, с поправкой на солнечный нагрев. Характеристика знойности погоды. Зависит от высоты солнца над горизонтом, облачности и скорости ветра. Ночью, в пасмурную погоду, а также при ветре 12 м/с и более поправка равна нулю.
P - Атмосферное давление - приведенное к уровню моря атмосферное давление.
Po - Атмосферное давление - измеренное на уровне метеостанции атмосферное давление.
Tmin - Минимальная температура - минимум температуры воздуха на высоте 2 м над землей.
Tmax - Максимальная температура - максимум температуры воздуха на высоте 2 м над землей.
R - Количество осадков - Количество выпавших осадков за период времени, мм. При наведении курсора мыши на число - период времени, за который выпало указанное количество осадков.
R24 - Количество осадков - Количество выпавших осадков за 24 часа, мм.
S - Снежный покров - Высота снежного покрова, см. При наведении курсора мыши на число - состояние снежного покрова и степень покрытия местности в баллах.